[ hide orbit diagram ]
For accurate long-term ephemerides, please instead use our Horizons system.This orbit viewer was implemented using two-body methods, and hence should not be used for determining accurate long-term trajectories (over several years or decades) or planetary encounter circumstances.
Orbital Elements at Epoch 2459000.5 (2020-May-31.0) TDB
Reference: JPL 35 (heliocentric ecliptic J2000)
Element | Value | Uncertainty (1-sigma) | Units |
e | .0759906891319735 | 4.2501e-08 | |
a | 2.709887096884128 | 1.1437e-08 | au |
q | 2.50396090892206 | 1.1412e-07 | au |
i | 14.89142204569435 | 4.3028e-06 | deg |
node | 62.99688464743064 | 1.5542e-05 | deg |
peri | 289.6486568067489 | 3.051e-05 | deg |
M | 78.29140757335675 | 2.5815e-05 | deg |
tp | 2458646.146421544494 (2019-Jun-11.64642154) | 0.00011703 | TDB |
period | 1629.390659817366 4.46 | 1.0315e-05 2.824e-08 | d yr |
n | .220941489894358 | 1.3987e-09 | deg/d |
Q | 2.915813284846196 | 1.2306e-08 | au |
|
| | Orbit Determination Parameters
Additional Information
|
[ show covariance matrix ]
Physical Parameter Table
Parameter |
Symbol |
Value |
Units |
Sigma |
Reference |
Notes |
absolute magnitude |
H |
12.0 |
|
n/a |
MPO502179 |
|
diameter |
diameter |
14.959 |
km |
0.183 |
urn:nasa:pds:neowise_diameters_albedos::2.0[mainbelt] (http://adsabs.harvard.edu/abs/2014ApJ...791..121M) |
|
rotation period |
rot_per |
6.009 |
h |
n/a |
LCDB (Rev. 2020-October); Warner et al., 2009 |
Result based on fragmentary lightcurve(s), may be completely wrong. Published Reference List: [Behrend, R. (2018) Observatoire de Geneve web site, http://obswww.unige.ch/~behrend/page_cou.html] |
geometric albedo |
albedo |
0.095 |
|
0.009 |
urn:nasa:pds:neowise_diameters_albedos::2.0[mainbelt] (http://adsabs.harvard.edu/abs/2014ApJ...791..121M) |
|
|
2695 Christabel (1979 UE) Discovered 1979-Oct-17 by Bowell, E. at Flagstaff (AM) |
Discovered at the Anderson Mesa station, which is operated by the Lowell Observatory. |
Reference: DISCOVERY.DB | Last Updated: 2003-08-29 |
|
[ show close-approach data ]
Alternate Designations
1979 UE = 1961 TG1 = 1961 TY1 |
|
|